Back to catalog

FORMOSAT 3F

AliveWeatherLEO
NORAD 29052·PAYLOAD·🇹🇼 Taiwan

Launched Apr 15, 2006 from Vandenberg Space Force Base

Loading…

Next Passes (next 24 hours)

TLE

FreshSource: Space-Track

Epoch: Sep 14, 2026, 02:58 UTC

1 29052U 06011F   26257.12402095  .00000327  00000-0  13685-3 0  9999
2 29052  72.0323 200.4127 0038700   2.8523 357.2828 14.31674926 65516

Track FORMOSAT 3F in real time with AllMySat

Download on the App Store